Regional Weather Roundup
Issued by NWS Green Bay, WI

Home | Current Version | Previous Version | Text Only | Print | Product List | Glossary On
Versions: 1 2 3 4 5 6 7 8 9 10 11 12 13 14 15 16 17 18 19 20 21 22 23 24 25 26 27 28 29 30 31 32 33 34 35 36 37 38 39 40 41 42 43 44 45 46 47 48 49 50
000
ASUS43 KGRB 170001
RWRGRB

NORTH-CENTRAL AND NORTHEAST WISCONSIN REGIONAL WEATHER ROUNDUP
NATIONAL WEATHER SERVICE GREEN BAY WI
700 PM CDT WED AUG 16 2017

WIZ005-009-010>012-018-019-170100-
NORTH CENTRAL WISCONSIN

CITY           SKY/WX    TMP DP  RH WIND       PRES   REMARKS
IRONWOOD       MOSUNNY   73  60  63 E7        29.89F
MANITOWISH WTR NOT AVBL
ARBOR VITAE    NOT AVBL
EAGLE RIVER    NOT AVBL
LAND O LAKES   PTCLDY    70  56  62 SE6       29.94F
RHINELANDER    PTCLDY    70  60  70 E10       29.92F
PHILLIPS       CLOUDY    72  63  73 SE6       29.87F
ANTIGO         NOT AVBL
TOMAHAWK       NOT AVBL
MERRILL        NOT AVBL
$$

WIZ013-073-170100-
NORTHEAST WISCONSIN

CITY           SKY/WX    TMP DP  RH WIND       PRES   REMARKS
IRON MOUNTAIN  CLEAR     70  56  61 SE7       29.93F
MARINETTE      CLEAR     69  63  81 E8        29.93F
$$

WIZ017-030-035>037-045-170100-
CENTRAL WISCONSIN

CITY           SKY/WX    TMP DP  RH WIND       PRES   REMARKS
MEDFORD        NOT AVBL
WAUSAU         CLOUDY    71  63  75 SE14      29.87F
MOSINEE        CLOUDY    72  64  78 E8        29.89F
MARSHFIELD     CLOUDY    74  62  66 E14       29.84F
WISC RAPIDS    CLOUDY    75  65  70 E14       29.86F
STEVENS POINT  NOT AVBL
WAUPACA        NOT AVBL
SHAWANO        NOT AVBL
CLINTONVILLE   CLOUDY    72  61  68 E6        29.89F
WAUTOMA        CLOUDY    75  66  73 E12G17    29.86S
$$

WIZ038-039-048-051-170100-
FOX VALLEY

CITY           SKY/WX    TMP DP  RH WIND       PRES   REMARKS
NWS GREEN BAY  CLOUDY    71  64  78 E8        29.90F
APPLETON       MOCLDY    73  57  56 E12       29.89F
OSHKOSH        CLOUDY    73  63  70 E14       29.88F
FOND DU LAC    MOCLDY    74  60  61 E8        29.88F
$$

WIZ022-050-052-170100-
EAST CENTRAL WISCONSIN

CITY           SKY/WX    TMP DP  RH WIND       PRES   REMARKS
EPHRAIM        NOT AVBL
WASHINGTON ISL NOT AVBL
STURGEON BAY   NOT AVBL
MANITOWOC      NOT AVBL
SHEBOYGAN      CLOUDY    69  66  90 NE9       29.92S
$$

LMZ563-521-522-541>543-170100-
LAKESHORE

STATION/POSITION TIME  TEMP    WIND        PRES    VSBY  WAVE
                       AIR SEA DIR/SP/G                  HT/PER
                 (UTC) (F)     (DEG/KT/KT) (MB)    (MI)  (FT/S)
SHEBOYGAN LKSHOR 2300   69      50/  8/  9 1012.8F
KEWAUNEE LKSHORE 2330   68      50/  4/  7 1012.8F
NORTHPORT PIER   2340   70     100/  4/  5 1013.9F
N MID LAKE BUOY  2250   68 69   60/  8/  8 1014.7F         1
S GREEN BAY BUOY 2330   72 72  100/  8/ 10 1013.2F
SISTER BAY LKSHO 2303   72     130/  6/  8   N/A
MENOMINEE LKSHOR 2330   71      50/  7/  9 1013.4F
$$




USA.gov is the U.S. government's official web portal to all federal, state and local government web resources and services.